Date String (YYYY-MM-DD hh:mm:ss) UTC,Instrument flags,Ambient pressure (hPa),Sample flow (lpm),Bypass flow (lpm),Sample temperature (°C),Ambient temperature (°C),ASC tube jacket temperature (°C),LED temperature (°C),Box temperature (°C),Sample RH (%),Span deviation,Mass concentration (μg/m³),Mass concentration (μg/m³),Mass concentration (μg/m³)
DateTimeUTC,F1_M11,P_M11,Q1_M11,Q2_M11,T1_M11,T2_M11,T3_M11,T4_M11,T5_M11,U1_M11,ZSPAN_M11,X0_M11,X2_M11,X1_M11
2022-11-19 21:00:00,,0830.8,5.00,0.00,26.0,24.8,00.0,34.7,27.8,09.1,0000.0,0008.98,0005.33,0004.84
2022-11-19 21:01:00,,0830.8,5.00,0.00,26.0,24.9,00.0,34.8,27.8,09.1,0000.0,0008.99,0005.34,0004.86
2022-11-19 21:02:00,,0830.8,5.00,0.00,26.0,24.9,00.0,34.8,27.8,09.3,0000.0,0008.94,0005.33,0004.88
2022-11-19 21:03:00,,0830.8,5.01,0.00,26.0,24.9,00.0,34.8,27.8,09.1,0000.0,0009.02,0005.38,0004.88
2022-11-19 21:04:00,,0830.7,5.01,0.00,26.0,24.9,00.0,34.8,27.8,08.8,0000.0,0009.07,0005.39,0004.87
2022-11-19 21:05:00,,0830.7,4.99,0.00,26.0,24.9,00.0,34.8,27.8,08.6,0000.0,0009.12,0005.38,0004.88
2022-11-19 21:06:00,,0830.8,4.99,0.00,26.0,24.9,00.0,34.8,27.9,08.5,0000.0,0009.94,0005.42,0004.90
2022-11-19 21:07:00,,0830.8,5.03,0.00,26.0,24.9,00.0,34.8,27.9,08.5,0000.0,0010.60,0005.41,0004.91
2022-11-19 21:08:00,,0830.7,5.00,0.00,26.0,24.9,00.0,34.8,27.9,08.5,0000.0,0010.62,0005.42,0004.95
2022-11-19 21:09:00,,0830.7,5.01,0.00,26.1,24.9,00.0,34.9,27.9,08.4,0000.0,0010.56,0005.42,0004.96
2022-11-19 21:10:00,,0830.6,4.99,0.00,26.1,24.9,00.0,34.9,27.9,08.3,0000.0,0010.50,0005.44,0004.97
2022-11-19 21:11:00,,0830.6,4.99,0.00,26.1,24.9,00.0,34.9,27.9,08.3,0000.0,0010.63,0005.46,0004.99
2022-11-19 21:12:00,,0830.6,5.03,0.00,26.1,24.9,00.0,34.9,27.9,08.4,0000.0,0010.66,0005.48,0005.00
2022-11-19 21:13:00,,0830.6,4.98,0.00,26.1,24.9,00.0,34.9,27.9,08.4,0000.0,0010.85,0005.52,0005.02
2022-11-19 21:14:00,,0830.6,5.00,0.00,26.1,24.9,00.0,34.9,27.9,08.4,0000.0,0011.13,0005.52,0005.05
2022-11-19 21:15:00,,0830.6,5.01,0.00,26.1,24.9,00.0,34.9,27.9,08.5,0000.0,0011.19,0005.52,0005.06
2022-11-19 21:16:00,,0830.6,5.00,0.00,26.1,24.9,00.0,34.9,27.9,08.4,0000.0,0011.10,0005.53,0005.08
2022-11-19 21:17:00,,0830.6,5.00,0.00,26.1,25.0,00.0,34.9,27.9,08.3,0000.0,0010.61,0005.50,0005.09
2022-11-19 21:18:00,,0830.6,5.00,0.00,26.2,25.0,00.0,35.0,27.9,08.3,0000.0,0011.29,0005.49,0005.09
2022-11-19 21:19:00,,0830.6,5.00,0.00,26.2,25.0,00.0,35.0,28.0,08.2,0000.0,0011.38,0005.51,0005.09
2022-11-19 21:20:00,,0830.6,5.00,0.00,26.2,25.0,00.0,35.0,28.0,08.3,0000.0,0011.86,0005.51,0005.09
2022-11-19 21:21:00,,0830.6,5.00,0.00,26.2,25.0,00.0,35.0,28.0,08.3,0000.0,0012.41,0005.53,0005.10
2022-11-19 21:22:00,,0830.6,5.00,0.00,26.2,25.0,00.0,35.0,28.0,08.3,0000.0,0012.62,0005.54,0005.11
2022-11-19 21:23:00,,0830.6,4.99,0.00,26.2,25.0,00.0,35.0,28.0,08.3,0000.0,0012.61,0005.55,0005.13
2022-11-19 21:24:00,,0830.5,4.99,0.00,26.2,25.0,00.0,35.0,28.0,08.4,0000.0,0012.52,0005.54,0005.15
2022-11-19 21:25:00,,0830.5,5.00,0.00,26.2,25.0,00.0,35.0,28.0,08.4,0000.0,0012.28,0005.54,0005.17
2022-11-19 21:26:00,,0830.5,5.01,0.00,26.2,25.0,00.0,35.0,28.0,08.4,0000.0,0012.42,0005.55,0005.18
2022-11-19 21:27:00,,0830.4,5.01,0.00,26.2,25.0,00.0,35.0,28.0,08.3,0000.0,0012.65,0005.59,0005.20
2022-11-19 21:28:00,,0830.4,5.00,0.00,26.2,25.0,00.0,35.1,28.0,08.3,0000.0,0013.12,0005.66,0005.24
2022-11-19 21:29:00,,0830.4,4.99,0.00,26.2,25.0,00.0,35.1,28.1,08.2,0000.0,0011.75,0005.72,0005.28
2022-11-19 21:30:00,,0830.4,5.00,0.00,26.3,25.0,00.0,35.1,28.1,08.2,0000.0,0012.05,0005.82,0005.34
2022-11-19 21:31:00,,0830.4,5.01,0.00,26.3,25.0,00.0,35.1,28.1,08.2,0000.0,0011.96,0005.93,0005.42
2022-11-19 21:32:00,,0830.4,5.01,0.00,26.3,25.0,00.0,35.1,28.1,08.2,0000.0,0011.51,0006.00,0005.49
2022-11-19 21:33:00,,0830.4,4.99,0.00,26.3,25.0,00.0,35.1,28.1,08.2,0000.0,0011.13,0006.10,0005.57
2022-11-19 21:34:00,,0830.5,5.00,0.00,26.3,25.0,00.0,35.1,28.1,08.1,0000.0,0011.30,0006.20,0005.62
2022-11-19 21:35:00,,0830.4,4.99,0.00,26.3,25.0,00.0,35.1,28.1,08.1,0000.0,0011.37,0006.26,0005.67
2022-11-19 21:36:00,,0830.4,5.00,0.00,26.3,25.0,00.0,35.1,28.1,08.1,0000.0,0011.34,0006.31,0005.73
2022-11-19 21:37:00,,0830.4,4.99,0.00,26.3,25.1,00.0,35.1,28.1,08.4,0000.0,0011.16,0006.32,0005.78
2022-11-19 21:38:00,,0830.4,5.00,0.00,26.3,25.1,00.0,35.1,28.1,08.3,0000.0,0011.52,0006.37,0005.83
2022-11-19 21:39:00,,0830.5,5.01,0.00,26.3,25.1,00.0,35.1,28.1,08.1,0000.0,0011.20,0006.36,0005.84
2022-11-19 21:40:00,,0830.4,5.00,0.00,26.3,25.1,00.0,35.1,28.1,08.1,0000.0,0011.22,0006.40,0005.87
2022-11-19 21:41:00,,0830.4,4.99,0.00,26.3,25.1,00.0,35.1,28.1,08.1,0000.0,0010.87,0006.39,0005.89
2022-11-19 21:42:00,,0830.3,5.00,0.00,26.3,25.1,00.0,35.1,28.1,08.1,0000.0,0010.99,0006.38,0005.91
2022-11-19 21:43:00,,0830.3,5.02,0.00,26.3,25.1,00.0,35.2,28.1,08.1,0000.0,0011.16,0006.39,0005.93
2022-11-19 21:44:00,,0830.3,4.99,0.00,26.3,25.1,00.0,35.2,28.2,08.1,0000.0,0011.09,0006.37,0005.94
2022-11-19 21:45:00,,0830.3,4.99,0.00,26.3,25.1,00.0,35.2,28.2,08.1,0000.0,0011.04,0006.34,0005.95
2022-11-19 21:46:00,,0830.2,5.00,0.00,26.4,25.1,00.0,35.2,28.2,08.1,0000.0,0011.11,0006.35,0005.96
2022-11-19 21:47:00,,0830.2,5.01,0.00,26.4,25.1,00.0,35.2,28.2,07.9,0000.0,0011.23,0006.37,0005.97
2022-11-19 21:48:00,,0830.2,5.01,0.00,26.4,25.1,00.0,35.2,28.2,07.8,0000.0,0011.24,0006.38,0005.97
2022-11-19 21:49:00,,0830.1,4.98,0.00,26.4,25.1,00.0,35.2,28.2,07.9,0000.0,0010.90,0006.37,0005.97
2022-11-19 21:50:00,,0830.2,5.01,0.00,26.4,25.1,00.0,35.2,28.2,07.9,0000.0,0011.20,0006.41,0005.99
2022-11-19 21:51:00,,0830.1,5.00,0.00,26.4,25.1,00.0,35.2,28.2,07.9,0000.0,0011.37,0006.41,0006.01
2022-11-19 21:52:00,,0830.1,5.00,0.00,26.4,25.1,00.0,35.2,28.2,07.9,0000.0,0011.42,0006.43,0006.00
2022-11-19 21:53:00,,0830.1,5.00,0.00,26.4,25.1,00.0,35.2,28.2,07.9,0000.0,0011.22,0006.42,0005.99
2022-11-19 21:54:00,,0830.1,5.00,0.00,26.4,25.1,00.0,35.2,28.2,07.9,0000.0,0010.95,0006.42,0005.99
2022-11-19 21:55:00,,0830.1,4.99,0.00,26.4,25.1,00.0,35.2,28.2,08.2,0000.0,0011.02,0006.40,0005.96
2022-11-19 21:56:00,,0830.1,5.00,0.00,26.4,25.1,00.0,35.2,28.2,08.4,0000.0,0011.21,0006.36,0005.92
2022-11-19 21:57:00,,0830.1,5.00,0.00,26.4,25.1,00.0,35.3,28.2,08.4,0000.0,0011.91,0006.30,0005.88
2022-11-19 21:58:00,,0830.2,5.00,0.00,26.4,25.1,00.0,35.3,28.3,08.4,0000.0,0012.39,0006.28,0005.85
2022-11-19 21:59:00,,0830.2,5.01,0.00,26.4,25.2,00.0,35.3,28.3,08.4,0000.0,0012.53,0006.28,0005.82
